Home > Weather > Idar-Oberstein > Past weeks

Flag for Germany Weather for the Past 2 Weeks in Idar-Oberstein, Rhineland-Palatinate, Germany

Now
41 °F

Passing clouds.


Feels Like: 34 °F
Forecast: 42 / 47 °F
Wind: 12 mph from Southwest

Location: Hahn

Current Time: Feb 6, 2016 at 9:24:29 AM

Latest Report: Feb 6, 2016 at 8:50 AM


Visibility: N/A

Pressure: 29.98 "Hg

Humidity: 93%

Dew point: 39 °F

Location of Idar-ObersteinLocation

Historic Weather in Idar-Oberstein — Graph

°F

Idar-Oberstein Temperature Yesterday

Maximum temperature yesterday: 46 °F (at 1:50 PM)
Minimum temperature yesterday: 37 °F (at 12:20 AM)
Average temperature yesterday: 42 °F

High & Low Weather Summary for the Past Weeks

 TemperatureHumidityPressure
High54 °F (Jan 25, 1:20 PM)100% (Jan 22, 8:20 AM)30.57 "Hg (Jan 22, 8:20 AM)
Low21 °F (Jan 22, 8:20 AM)51% (Jan 25, 3:20 PM)29.77 "Hg (Jan 30, 2:50 PM)
Average40 °F89%30.18 "Hg
* Reported Jan 22 7:20 AM — Feb 6 7:50 AM, Idar-Oberstein, Weather by CustomWeather, © 2016

Note: Actual official high and low records may vary slightly from our data, if they occured in-between our weather recording intervals... More about our weather records

Advertising

Idar-Oberstein Weather History for the Previous 24 Hours

 ConditionsComfort  
Time TempWeatherWind HumidityBarometerVisibility
7:50 AM
Sat, Feb 6
39 °FClear.9 mph93%29.98 "Hg10 mi
7:20 AM39 °FClear.8 mph93%29.98 "Hg10 mi
6:50 AM39 °FClear.9 mph100%29.98 "Hg10 mi
6:20 AM37 °FClear.10 mph100%29.98 "Hg10 mi
5:50 AM37 °FClear.14 mph100%29.98 "Hg10 mi
4:50 AM37 °FClear.8 mph100%30.01 "Hg10 mi
4:20 AM37 °FClear.8 mph100%30.04 "Hg10 mi
3:50 AM37 °FClear.7 mph100%30.04 "Hg10 mi
2:50 AM37 °FClear.5 mph100%30.07 "Hg10 mi
2:20 AM39 °FPassing clouds.5 mph93%30.07 "HgN/A
1:20 AM43 °FPassing clouds.6 mph93%30.09 "HgN/A
12:50 AM43 °FPassing clouds.5 mph93%30.09 "HgN/A
12:20 AM43 °FPassing clouds.8 mph93%30.12 "HgN/A
11:50 PM
Fri, Feb 5
43 °FPassing clouds.8 mph93%30.12 "HgN/A
11:20 PM43 °FPassing clouds.9 mph93%30.12 "HgN/A
10:50 PM45 °FPassing clouds.9 mph87%30.12 "HgN/A
10:20 PM45 °FPassing clouds.12 mph87%30.15 "HgN/A
9:50 PM45 °FPassing clouds.9 mph87%30.15 "HgN/A
8:50 PM45 °FPassing clouds.9 mph93%30.15 "HgN/A
8:20 PM45 °FPassing clouds.9 mph87%30.18 "HgN/A
7:50 PM45 °FPassing clouds.9 mph87%30.18 "HgN/A
7:20 PM45 °FPassing clouds.8 mph87%30.18 "HgN/A
6:50 PM45 °FPassing clouds.9 mph87%30.18 "HgN/A
6:20 PM45 °FPassing clouds.8 mph87%30.18 "HgN/A
5:50 PM45 °FPassing clouds.9 mph87%30.18 "HgN/A
5:20 PM45 °FPartly sunny.8 mph87%30.21 "HgN/A
4:50 PM45 °FBroken clouds.8 mph87%30.21 "HgN/A
4:20 PM45 °FPartly sunny.8 mph87%30.21 "HgN/A
3:50 PM46 °FPartly sunny.10 mph82%30.21 "HgN/A
3:20 PM46 °FBroken clouds.13 mph87%30.21 "HgN/A
2:50 PM46 °FBroken clouds.17 mph87%30.21 "HgN/A
2:20 PM46 °FBroken clouds.16 mph87%30.21 "HgN/A
1:50 PM46 °FBroken clouds.15 mph87%30.24 "HgN/A
1:20 PM45 °FBroken clouds.14 mph93%30.24 "HgN/A
12:50 PM45 °FBroken clouds.14 mph93%30.27 "HgN/A
12:20 PM45 °FPartly sunny.13 mph93%30.27 "HgN/A
11:50 AM43 °FFog.10 mph100%30.27 "Hg2 mi
11:20 AM43 °FFog.12 mph100%30.27 "Hg2 mi
10:50 AM43 °FFog.12 mph100%30.30 "Hg1 mi
10:20 AM41 °FFog.12 mph100%30.27 "Hg1 mi
9:58 AM41 °FFog.10 mph100%30.30 "Hg1 mi
9:50 AM41 °FFog.10 mph100%30.30 "Hg1 mi
9:20 AM39 °FFog.8 mph100%30.30 "Hg2 mi
Weather by CustomWeather, © 2016

See weather overviewHow to use our weather pages